Regional Weather Roundup
Issued by NWS

Home | Current Version | Previous Version | Graphics & Text | Print | Product List | Glossary On
Versions: 1 2 3 4 5 6 7 8 9 10 11 12 13 14 15 16 17 18 19 20 21 22 23 24 25 26 27 28 29 30 31 32 33 34 35 36 37 38 39 40 41 42 43 44 45 46 47 48 49 50
000
ASUS45 KABQ 260201
RWRNM
WEATHER ROUNDUP FOR NEW MEXICO
NATIONAL WEATHER SERVICE ALBUQUERQUE NM
800 PM MDT SAT OCT 25 2014

NOTE: "FAIR" MEANS FEW OR NO CLOUDS BELOW 12,000 FEET AGL WITH NO
       SIGNIFICANT WEATHER OR OBSTRUCTIONS TO VISION.

      THIS PRODUCT IS RELEASED AS TWO VERSIONS.  ONE VERSION NEAR
      THE TOP OF THE HOUR CONTAINING PRELIMINARY DATA FROM ALBUQUERQUE
      AND OTHER STATIONS.  A FINAL VERSION WITH ADDITIONAL DATA IS
      ISSUED ABOUT 10 MINUTES AFTER THE HOUR.

NMZ501-503-504-510>518-260300-
NORTHWEST PLATEAU/NORTHCENTRAL MOUNTAINS

CITY           SKY/WX    TMP DP  RH WIND       PRES   REMARKS
FARMINGTON     CLEAR     65  34  31 CALM      30.16R
LOS ALAMOS     CLEAR     65  27  23 W10       30.28S
SANTA FE       CLEAR     62  27  26 SW7       30.22R
TAOS           CLEAR     55  19  24 W7        30.27R
ANGEL FIRE     FAIR      37  24  58 CALM      30.34S

$$
NMZ402-403-502-505>509-260300-
WESTCENTRAL MOUNTAINS/SOUTHWEST MOUNTAINS

CITY           SKY/WX    TMP DP  RH WIND       PRES   REMARKS
GALLUP         CLEAR     61  35  37 SW6       30.26R
GRANTS         CLEAR     54  30  40 CALM      30.28S
SILVER CITY    CLEAR     59  41  51 NW7       30.24S

$$
NMZ407-409-411-412-260300-
SOUTHERN DESERTS

CITY           SKY/WX    TMP DP  RH WIND       PRES   REMARKS
LORDSBURG      FAIR      68  41  37 CALM      30.15R
DEMING         CLEAR     68  43  40 W6        30.15R
LAS CRUCES     CLEAR     68  45  42 SW6       30.17S
HOLLOMAN AFB   PTCLDY    69  43  38 E8        30.13R
T OR C         CLEAR     71  45  39 W7        30.14S

$$
NMZ519>523-260300-
CENTRAL VALLEYS/CENTRAL HIGHLANDS

CITY           SKY/WX    TMP DP  RH WIND       PRES   REMARKS
ALBUQUERQUE    CLEAR     69  35  28 SE5       30.18R
DOUBLE EAGLE   CLEAR     57  34  41 S9        30.21S
MORIARTY ARPT  FAIR      54  28  36 SW3       30.24S
CLINES CORNERS CLEAR     54  26  34 W12       30.27S
BELEN          NOT AVBL
SOCORRO        FAIR      65  40  39 S5        30.16R

$$
NMZ524>526-539-540-260300-
SOUTHCENTRAL MOUNTAINS

CITY           SKY/WX    TMP DP  RH WIND       PRES   REMARKS
RUIDOSO        NOT AVBL

$$
NMZ527>531-260300-
NORTHEAST HIGHLANDS/NORTHEAST PLAINS

CITY           SKY/WX    TMP DP  RH WIND       PRES   REMARKS
LAS VEGAS      CLEAR     59  23  25 SW13      30.24R
RATON          CLEAR     63  20  19 SW9       30.14S
CLAYTON        CLEAR     66  36  32 S14       30.08S

$$
NMZ532>537-260300-
EASTCENTRAL PLAINS

CITY           SKY/WX    TMP DP  RH WIND       PRES   REMARKS
TUCUMCARI      CLEAR     69  40  34 SW9       30.05S
CANNON AFB     CLEAR     64  40  40 SW7       30.12S
CLOVIS AIRPORT CLEAR     63  39  42 S8        30.15R

$$
NMZ028-029-538-260300-
SOUTHEAST PLAINS

CITY           SKY/WX    TMP DP  RH WIND       PRES   REMARKS
ROSWELL        CLEAR     67  54  63 S8        30.09R
CARLSBAD       CLEAR     63  55  75 S6        30.08R
HOBBS          CLEAR     64  48  55 S6        30.13S


$$



USA.gov is the U.S. government's official web portal to all federal, state and local government web resources and services.